Kremmling, CO

5:05 PM MST on November 22, 2019 (GMT -0700)
Kremmling

Weather History for K20V - September, 2019

Change the Weather History Date:

Thursday, September 12, 2019

  Actual Average Record
Temperature  
Mean Temperature 48 °F -  
Max Temperature 61 °F - 86 °F (2017)
Min Temperature 36 °F - 30 °F (2014)
Degree Days  
Heating Degree Days 16    
Month to date heating degree days 60  
Cooling Degree Days 0    
Month to date cooling degree days 4  
Moisture  
Dew Point 33 °F    
Average Humidity 57    
Maximum Humidity 82    
Minimum Humidity 31    
Precipitation  
Precipitation 0.00 in - 0.23 in (2008)
Snow  
Snow 0.00 in - - ()
Snow Depth 0.00 in    
Sea Level Pressure  
Sea Level Pressure 30.42 in    
Wind  
Wind Speed 4 mph ()    
Max Wind Speed 16 mph    
Max Gust Speed 25 mph    
Visibility 10.0 miles    
Events      
T = Trace of Precipitation, MM = Missing Value Source: Averaged Metar Reports

Daily Weather History Graph

Daily Weather History Graph

Search for Another Location

Airport or City:

Astronomy

Sep. 12, 2019 Rise Set
Actual Time 6:43 AM MDT 7:19 PM MDT
Civil Twilight 6:16 AM MDT 7:46 PM MDT
Nautical Twilight 5:43 AM MDT 8:18 PM MDT
Astronomical Twilight 5:10 AM MDT 8:51 PM MDT
Moon 7:05 PM MDT (9/12) 5:05 AM MDT (9/12)
Length of Visible Light 13h 30m
Length of Day
12h 35m
Waxing Gibbous, 98% of the Moon is Illuminated
Sep 12
Waxing Gibbous
Sep 13
Full
Sep 21
Last Quarter
Sep 28
New
Oct 5
First Quarter

Hourly Weather History & Observations

Time (MDT) Temp. Windchill Dew Point Humidity Pressure Visibility Wind Dir Wind Speed Gust Speed Precip Events Conditions
12:06 AM 42.8 °F - 37.4 °F 81% 30.32 in 10.0 mi Calm Calm - N/A   Overcast
12:30 AM 42.8 °F - 35.6 °F 76% 30.32 in 10.0 mi Calm Calm - N/A   Mostly Cloudy
12:47 AM 42.8 °F - 35.6 °F 76% 30.32 in 10.0 mi Calm Calm - N/A   Overcast
1:06 AM 44.6 °F 42.2 °F 37.4 °F 76% 30.33 in 10.0 mi NE 4.6 mph - N/A   Overcast
1:30 AM 42.8 °F - 35.6 °F 76% 30.34 in 10.0 mi Calm Calm - N/A   Scattered Clouds
1:48 AM 42.8 °F - 35.6 °F 76% 30.34 in 10.0 mi Calm Calm - N/A   Scattered Clouds
2:06 AM 42.8 °F - 35.6 °F 76% 30.34 in 10.0 mi Calm Calm - N/A   Mostly Cloudy
2:30 AM 41.0 °F 35.8 °F 35.6 °F 81% 30.34 in 10.0 mi ESE 8.1 mph - N/A   Scattered Clouds
2:48 AM 41.0 °F 38.0 °F 35.6 °F 81% 30.35 in 10.0 mi NE 4.6 mph - N/A   Scattered Clouds
3:06 AM 41.0 °F - 35.6 °F 81% 30.35 in 10.0 mi Calm Calm - N/A   Overcast
3:30 AM 41.0 °F - 35.6 °F 81% 30.36 in 10.0 mi Calm Calm - N/A   Overcast
3:48 AM 41.0 °F - 35.6 °F 81% 30.37 in 10.0 mi Calm Calm - N/A   Overcast
4:06 AM 41.0 °F - 35.6 °F 81% 30.37 in 10.0 mi Calm Calm - N/A   Overcast
4:30 AM 41.0 °F - 35.6 °F 81% 30.38 in 10.0 mi Calm Calm - N/A   Overcast
4:48 AM 41.0 °F 39.0 °F 35.6 °F 81% 30.38 in 10.0 mi South 3.5 mph - N/A   Overcast
5:06 AM 41.0 °F - 35.6 °F 81% 30.39 in 10.0 mi Calm Calm - N/A   Overcast
5:30 AM 42.8 °F 40.1 °F 33.8 °F 70% 30.39 in 10.0 mi WNW 4.6 mph - N/A   Overcast
5:48 AM 42.8 °F 41.1 °F 33.8 °F 70% 30.40 in 10.0 mi NW 3.5 mph - N/A   Overcast
6:08 AM 42.8 °F 38.6 °F 32.0 °F 66% 30.40 in 10.0 mi NNW 6.9 mph - N/A   Mostly Cloudy
6:26 AM 42.8 °F 38.6 °F 32.0 °F 66% 30.41 in 10.0 mi NNW 6.9 mph - N/A   Mostly Cloudy
6:50 AM 41.0 °F 38.0 °F 33.8 °F 76% 30.41 in 10.0 mi West 4.6 mph - N/A   Overcast
7:06 AM 39.2 °F 35.9 °F 33.8 °F 81% 30.42 in 10.0 mi West 4.6 mph - N/A   Mostly Cloudy
7:30 AM 41.0 °F 37.1 °F 33.8 °F 76% 30.43 in 10.0 mi West 5.8 mph - N/A   Scattered Clouds
7:47 AM 42.8 °F - 33.8 °F 70% 30.43 in 10.0 mi Calm Calm - N/A   Scattered Clouds
8:05 AM 44.6 °F 42.2 °F 33.8 °F 66% 30.43 in 10.0 mi SW 4.6 mph - N/A   Mostly Cloudy
8:29 AM 48.2 °F - 35.6 °F 62% 30.43 in 10.0 mi Calm Calm - N/A   Mostly Cloudy
8:47 AM 48.2 °F - 35.6 °F 62% 30.44 in 10.0 mi South 4.6 mph - N/A   Overcast
9:06 AM 48.2 °F - 32.0 °F 54% 30.44 in 10.0 mi Calm Calm - N/A   Overcast
9:30 AM 50.0 °F - 32.0 °F 50% 30.45 in 10.0 mi South 3.5 mph - N/A   Overcast
9:48 AM 53.6 °F - 33.8 °F 47% 30.45 in 10.0 mi WNW 3.5 mph - N/A   Mostly Cloudy
10:06 AM 53.6 °F - 32.0 °F 44% 30.44 in 10.0 mi Calm Calm - N/A   Mostly Cloudy
10:30 AM 53.6 °F - 32.0 °F 44% 30.44 in 10.0 mi SW 3.5 mph - N/A   Scattered Clouds
10:48 AM 53.6 °F - 32.0 °F 44% 30.44 in 10.0 mi WSW 4.6 mph - N/A   Scattered Clouds
11:06 AM 55.4 °F - 32.0 °F 41% 30.44 in 10.0 mi SW 6.9 mph - N/A   Clear
11:30 AM 55.4 °F - 32.0 °F 41% 30.44 in 10.0 mi SSW 5.8 mph - N/A   Scattered Clouds
11:48 AM 55.4 °F - 30.2 °F 38% 30.43 in 10.0 mi SW 8.1 mph - N/A   Mostly Cloudy
12:29 PM 59.0 °F - 30.2 °F 34% 30.43 in 10.0 mi West 8.1 mph - N/A   Overcast
12:47 PM 59.0 °F - 30.2 °F 34% 30.42 in 10.0 mi WSW 8.1 mph - N/A   Overcast
1:06 PM 60.8 °F - 30.2 °F 31% 30.42 in 10.0 mi Calm Calm - N/A   Overcast
1:30 PM 59.0 °F - 30.2 °F 34% 30.42 in 10.0 mi WSW 5.8 mph - N/A   Overcast
1:48 PM 60.8 °F - 32.0 °F 34% 30.41 in 10.0 mi NNW 8.1 mph - N/A   Overcast
2:06 PM 59.0 °F - 30.2 °F 34% 30.41 in 10.0 mi North 6.9 mph 16.1 mph N/A   Overcast
2:30 PM 59.0 °F - 32.0 °F 36% 30.41 in 10.0 mi North 11.5 mph 16.1 mph N/A   Mostly Cloudy
2:48 PM 59.0 °F - 32.0 °F 36% 30.41 in 10.0 mi North 11.5 mph 18.4 mph N/A   Mostly Cloudy
3:06 PM 59.0 °F - 32.0 °F 36% 30.41 in 10.0 mi NNE 11.5 mph 19.6 mph N/A   Mostly Cloudy
3:30 PM 60.8 °F - 32.0 °F 34% 30.41 in 10.0 mi North 15.0 mph 19.6 mph N/A   Mostly Cloudy
3:48 PM 60.8 °F - 32.0 °F 34% 30.41 in 10.0 mi North 16.1 mph 23.0 mph N/A   Mostly Cloudy
4:06 PM 59.0 °F - 32.0 °F 36% 30.41 in 10.0 mi North 16.1 mph 25.3 mph N/A   Mostly Cloudy
4:30 PM 60.8 °F - 32.0 °F 34% 30.40 in 10.0 mi North 12.7 mph 21.9 mph N/A   Mostly Cloudy
4:48 PM 60.8 °F - 32.0 °F 34% 30.41 in 10.0 mi North 12.7 mph 18.4 mph N/A   Scattered Clouds
5:06 PM 60.8 °F - 32.0 °F 34% 30.41 in 10.0 mi North 16.1 mph 21.9 mph N/A   Scattered Clouds
5:30 PM 60.8 °F - 32.0 °F 34% 30.41 in 10.0 mi North 11.5 mph 21.9 mph N/A   Scattered Clouds
5:48 PM 60.8 °F - 32.0 °F 34% 30.42 in 10.0 mi North 11.5 mph 16.1 mph N/A   Scattered Clouds
6:06 PM 59.0 °F - 32.0 °F 36% 30.42 in 10.0 mi North 11.5 mph 17.3 mph N/A   Clear
6:48 PM 55.4 °F - 32.0 °F 41% 30.43 in 10.0 mi North 11.5 mph - N/A   Clear
7:06 PM 55.4 °F - 32.0 °F 41% 30.44 in 10.0 mi NNW 11.5 mph - N/A   Clear
7:30 PM 53.6 °F - 32.0 °F 44% 30.44 in 10.0 mi NNW 10.4 mph 17.3 mph N/A   Clear
7:48 PM 53.6 °F - 32.0 °F 44% 30.44 in 10.0 mi NW 8.1 mph 18.4 mph N/A   Clear
8:06 PM 53.6 °F - 32.0 °F 44% 30.45 in 10.0 mi NNW 10.4 mph 17.3 mph N/A   Clear
8:30 PM 51.8 °F - 33.8 °F 50% 30.47 in 10.0 mi NW 4.6 mph - N/A   Clear
8:48 PM 48.2 °F - 32.0 °F 54% 30.47 in 10.0 mi Calm Calm - N/A   Clear
9:06 PM 48.2 °F - 32.0 °F 54% 30.48 in 10.0 mi Calm Calm - N/A   Clear
9:30 PM 48.2 °F - 32.0 °F 54% 30.48 in 10.0 mi Calm Calm - N/A   Clear
9:48 PM 44.6 °F - 32.0 °F 61% 30.48 in 10.0 mi Calm Calm - N/A   Clear
10:06 PM 41.0 °F - 32.0 °F 70% 30.49 in 10.0 mi Calm Calm - N/A   Clear
10:29 PM 41.0 °F 39.0 °F 32.0 °F 70% 30.49 in 10.0 mi SE 3.5 mph - N/A   Clear
10:47 PM 41.0 °F - 32.0 °F 70% 30.48 in 10.0 mi Calm Calm - N/A   Clear
11:06 PM 41.0 °F - 32.0 °F 70% 30.49 in 10.0 mi Calm Calm - N/A   Clear
11:30 PM 37.4 °F - 32.0 °F 81% 30.49 in 10.0 mi Calm Calm - N/A   Clear
11:48 PM 37.4 °F 34.9 °F 32.0 °F 81% 30.49 in 10.0 mi ESE 3.5 mph - N/A   Clear